EW6220 Weather Reports


time (UTC)temp
C
wind
direction
speed
KPH
gust
KPH
rain 1hr
cm
rain 24hr
cm
rain mn
cm
humidity
%
barometer
mb
20260507024559 6 283 0.0 1.6 0.00 2.39 1.93 96 1011.9
20260507023056 6 314 0.0 1.6 0.00 2.39 1.93 96 1011.8
20260507021557 6 296 0.0 1.6 0.00 2.39 1.93 96 1012.0
20260507020055 6 330 0.0 0.0 0.00 2.62 1.93 96 1011.9
20260507014554 6 332 0.0 1.6 0.00 2.62 1.93 96 1012.1
20260507013100 6 332 0.0 0.0 0.00 2.62 1.93 96 1012.1
20260507011555 6 331 0.0 1.6 0.00 2.62 1.93 96 1011.7
20260507010049 6 281 0.0 1.6 0.00 2.77 1.93 96 1011.7
20260507003047 6 281 0.0 1.6 0.00 2.77 1.93 95 1011.3
20260507001547 6 281 0.0 1.6 0.00 2.77 1.93 95 1011.2
20260507000051 6 243 0.0 1.6 0.00 2.77 1.93 94 1011.1
20260506234548 6 232 0.0 4.8 0.00 2.77 1.93 94 1010.9
20260506233042 6 307 0.0 1.6 0.00 2.77 1.93 94 1010.9
20260506231544 6 279 0.0 4.8 0.00 2.77 1.93 94 1010.8
20260506230039 6 238 0.0 1.6 0.00 2.77 1.93 94 1010.1
20260506224549 6 238 0.0 3.2 0.00 2.77 1.93 93 1010.2
20260506223038 6 321 0.0 3.2 0.00 2.77 1.93 94 1010.5
20260506221537 6 311 0.0 3.2 0.00 2.77 1.93 93 1010.4
20260506220038 6 13 0.0 4.8 0.00 2.77 1.93 94 1010.7
20260506214535 6 344 1.6 9.7 0.00 2.77 1.93 94 1010.5
20260506213034 6 308 1.6 6.4 0.00 2.77 1.93 94 1010.3
20260506211533 6 311 1.6 8.0 0.00 2.77 1.93 95 1010.2
20260506210030 6 320 1.6 8.0 0.00 2.92 1.93 95 1010.1
20260506204529 6 298 0.0 8.0 0.00 2.92 1.93 96 1010.1
20260506203032 6 314 1.6 6.4 0.00 2.92 1.93 96 1009.8
20260506201527 6 336 4.8 14.5 0.00 2.92 1.93 96 1009.6
20260506200025 6 324 1.6 11.3 0.00 2.92 1.93 96 1009.4
20260506194525 6 330 3.2 14.5 0.00 2.92 1.93 97 1009.6
20260506193023 6 332 4.8 16.1 0.00 2.92 1.93 97 1009.5
20260506191522 6 314 4.8 9.7 0.00 2.92 1.93 97 1009.3
20260506190019 6 32 3.2 12.9 0.03 3.02 1.93 97 1009.1
20260506184525 6 319 3.2 12.9 0.03 3.02 1.93 97 1009.1
20260506183017 6 283 3.2 12.9 0.03 3.02 1.93 97 1009.1
20260506181516 6 30 1.6 12.9 0.03 3.02 1.93 96 1008.7
20260506180023 6 326 3.2 11.3 0.00 3.63 1.91 96 1008.5
20260506174514 6 346 4.8 12.9 0.00 3.63 1.91 96 1008.3
20260506173015 6 10 3.2 8.0 0.00 3.63 1.91 96 1008.0
20260506171513 6 360 3.2 9.7 0.03 3.63 1.91 96 1008.1
20260506170015 6 33 0.0 11.3 0.03 3.63 1.91 97 1008.0
20260506164517 6 19 3.2 11.3 0.08 3.63 1.91 96 1007.9
20260506163010 6 345 1.6 9.7 0.10 3.63 1.91 97 1008.0
20260506161512 6 308 1.6 9.7 0.08 3.61 1.88 97 1007.9
20260506160009 6 358 3.2 8.0 0.10 3.61 1.88 97 1008.2
20260506154508 6 3 3.2 8.0 0.05 3.56 1.83 96 1008.2
20260506153007 6 330 0.0 4.8 0.05 3.53 1.80 96 1008.2
20260506151507 6 353 3.2 6.4 0.10 3.53 1.80 96 1008.0
20260506150006 6 34 1.6 3.2 0.13 3.51 1.78 96 1007.9
20260506144505 6 104 0.0 6.4 0.15 3.51 1.78 96 1007.6
20260506143007 6 124 1.6 4.8 0.15 3.48 1.75 96 1007.5
20260506141505 6 358 0.0 8.0 0.18 3.43 1.70 97 1007.7
20260506140004 5 70 0.0 9.7 0.23 3.38 1.65 97 1007.7
20260506134502 5 44 0.0 4.8 0.36 3.35 1.63 96 1007.7
20260506133109 5 53 1.6 4.8 0.46 3.33 1.60 96 1007.8
20260506131600 5 13 3.2 8.0 0.46 3.25 1.52 96 1007.9
20260506130100 5 326 0.0 6.4 0.46 3.17 1.42 96 1007.8
20260506124601 5 69 1.6 9.7 0.36 3.02 1.30 96 1007.7
20260506123057 5 343 1.6 8.0 0.23 2.84 1.14 96 1007.7
20260506121556 5 27 1.6 9.7 0.20 2.79 1.07 96 1007.5
20260506120055 5 51 3.2 14.5 0.20 2.72 0.99 96 1007.5
20260506114600 5 18 1.6 9.7 0.25 2.67 0.94 96 1007.5
20260506113058 5 32 6.4 12.9 0.30 2.64 0.91 96 1007.8
20260506111553 5 321 1.6 8.0 0.30 2.59 0.86 96 1007.9
20260506110050 5 358 3.2 9.7 0.25 2.51 0.79 96 1008.2
20260506104556 5 34 1.6 8.0 0.15 2.41 0.69 96 1008.0
20260506103056 5 154 0.0 9.7 0.15 2.34 0.61 96 1007.5
20260506101551 5 51 0.0 4.8 0.15 2.29 0.56 96 1007.4
20260506100048 5 141 1.6 9.7 0.18 2.26 0.53 96 1007.3
20260506094545 5 120 1.6 8.0 0.20 2.26 0.53 96 1007.3
20260506093043 5 58 0.0 4.8 0.18 2.18 0.46 96 1007.7
20260506091542 5 29 3.2 6.4 0.20 2.13 0.41 96 1008.0
20260506090040 6 322 0.0 11.3 0.20 2.08 0.36 96 1008.6
20260506084542 6 52 4.8 11.3 0.25 2.06 0.33 96 1008.5
20260506083034 6 307 3.2 12.9 0.23 2.01 0.28 95 1008.1
20260506081530 7 319 3.2 12.9 0.15 1.93 0.20 96 1008.0
20260506073024 7 7 0.0 3.2 0.00 1.91 0.05 96 1007.8
20260506071523 7 39 1.6 6.4 0.00 1.91 0.05 96 1007.3
20260506061516 8 120 0.0 3.2 0.05 1.91 0.05 96 1008.4
20260506044508 7 223 0.0 1.6 0.00 1.88 0.00 96 1009.7
20260506043003 7 40 0.0 3.2 0.03 1.88 0.00 96 1009.5
20260506041501 7 145 0.0 4.8 0.15 1.88 0.00 96 1009.5
20260506040100 7 120 0.0 1.6 0.28 1.88 1.88 96 1009.4
20260506034600 7 109 0.0 1.6 0.36 1.88 1.88 96 1009.5
20260506033058 7 113 0.0 1.6 0.36 1.85 1.85 96 1009.5
20260506031558 7 129 0.0 1.6 0.28 1.73 1.73 96 1009.6